sat.trackr.live / text

‹ back to catalog

STARLINK-33562

NORAD 62102 · 2024-220Q

PAYLOAD ACTIVE UNKNOWN

§ Identity

Operator
Country
US
Launch date
2024-11-25
Launch site
AFETR
Launch vehicle
Mass (kg)
RCS (m²)

Purposes: comms

External: N2YO · Heavens-Above · Gunter

§ Orbital elements

Epoch: 2026-05-24T09:58:31.168992Z

Period
94.27 min
Inclination
42.9998°
Eccentricity
0.0001100
Mean motion
15.27583662 rev/d
Perigee alt
482.3 km
Apogee alt
483.8 km
Semi-major
6,861.2 km
B*
2.5343e-4
RAAN
137.7845°
Arg perigee
270.6465°
Mean anomaly
89.4261°
Rev number
8,460

§ Raw data

STARLINK-335621 62102U 24220Q   26144.41563853  .00006719  00000+0  25343-3 0  99952 62102  42.9998 137.7845 0001100 270.6465  89.4261 15.27583662 84604

JSON: /api/v1/satellites/62102 · /tle

For live sub-satellite position, see the globe view (requires WebGL).

§ Visibility from observer

Set your observer location to see the next 7 days of passes ≥ 10°. The values pass through the URL so the page stays shareable.

No JS? Fill the form by hand. The geolocation button needs JavaScript.